Simultaneous Nadir Overpasses (SNOs) Predictions

Prediction of SNOs between NOAA-19 and TERRA Satellite Orbit:

Table of predicted SNOs for the next 14.0 days since TLE Epoch: 10/1/2022
Index Date (NOAA-19) Time (NOAA-19) Lat,Lon (NOAA-19) SZA (NOAA-19 ) Date (TERRA) Time (TERRA) Lat,Lon (TERRA) SZA (TERRA ) Distance(km) Time Diff (sec)
1 10/02/2022 12:48:19 80.87, 23.53 86.48 10/02/2022 12:49:17 80.87, 23.56 86.51 0.57 58
2 10/02/2022 13:39:16 -80.87,-168.92 93.48 10/02/2022 13:38:44 -80.87,-168.88 93.50 0.78 32
3 10/04/2022 19:12:09 80.87, -72.20 87.39 10/04/2022 19:12:21 80.86, -72.37 87.37 3.16 12
4 10/07/2022 00:44:57 -80.88, 24.44 91.76 10/07/2022 00:45:58 -80.87, 24.32 91.75 2.23 61
5 10/07/2022 01:35:59 80.87,-167.99 88.29 10/07/2022 01:35:24 80.87,-168.04 88.27 0.99 35
6 10/09/2022 07:08:47 -80.88, -71.56 90.89 10/09/2022 07:09:01 -80.87, -71.43 90.87 2.35 14
7 10/11/2022 12:41:41 80.88, 25.12 89.97 10/11/2022 12:42:37 80.87, 25.11 89.98 0.94 56
8 10/11/2022 13:32:36 -80.87,-167.24 89.99 10/11/2022 13:32:04 -80.87,-167.27 90.01 0.83 32



Historial Predications of SNOs between NOAA-19 and TERRA
